QPF
0.02 0.03 0.03 0.02 0.03 0.02 0.02 0.02 0.03 0.02 0.02 0.02 0.03 0.03 0.03 0.04 0.02 0.03 0.05 0.07 0.08 0.08 0.09 0.11 0.11 0.08 0.07 0.06 0.06 0.07 0.08 0.07 0.05 0.03 0.03 0.04 0.03 0.04 0.04 0.03 0.03 0.03 0.03
0.01 0.02 0.02 0.02 0.03 0.02 0.02 0.01 0.02 0.02 0.02 0.03 0.04 0.03 0.03 0.03 0.03 0.04 0.05 0.05 0.07 0.08 0.09 0.11 0.11 0.10 0.08 0.07 0.07 0.08 0.10 0.08 0.05 0.04 0.04 0.04 0.05 0.05 0.05 0.04 0.05 0.04 0.05
0.01 0.01 0.02 0.02 0.02 0.01 0.01 0.01 0.02 0.03 0.03 0.02 0.03 0.02 0.02 0.02 0.03 0.04 0.04 0.06 0.07 0.07 0.09 0.10 0.11 0.10 0.08 0.08 0.10 0.10 0.15 0.14 0.09 0.06 0.05 0.04 0.05 0.06 0.06 0.06 0.05 0.05 0.05
0.02 0.02 0.01 0.01 0.01 0.01 0.02 0.02 0.02 0.03 0.02 0.02 0.03 0.03 0.02 0.02 0.02 0.03 0.04 0.07 0.09 0.07 0.08 0.10 0.11 0.10 0.09 0.09 0.13 0.13 0.18 0.17 0.12 0.08 0.07 0.06 0.07 0.06 0.05 0.07 0.08 0.06 0.05
0.02 0.02 0.02 0.01 0.01 0.03 0.04 0.04 0.04 0.02 0.02 0.02 0.03 0.03 0.03 0.04 0.03 0.04 0.05 0.06 0.06 0.06 0.06 0.08 0.09 0.08 0.09 0.11 0.13 0.11 0.15 0.15 0.13 0.09 0.07 0.07 0.07 0.05 0.04 0.04 0.05 0.07 0.06
0.04 0.03 0.03 0.02 0.03 0.04 0.04 0.04 0.04 0.03 0.02 0.02 0.04 0.04 0.05 0.04 0.04 0.06 0.07 0.07 0.06 0.06 0.07 0.08 0.09 0.07 0.08 0.09 0.14 0.11 0.11 0.16 0.14 0.09 0.07 0.08 0.06 0.04 0.04 0.04 0.04 0.04 0.05
0.05 0.04 0.04 0.05 0.04 0.04 0.04 0.04 0.04 0.05 0.05 0.05 0.06 0.05 0.07 0.08 0.08 0.08 0.07 0.09 0.09 0.09 0.10 0.10 0.09 0.08 0.07 0.08 0.14 0.17 0.14 0.13 0.11 0.07 0.06 0.06 0.05 0.04 0.04 0.03 0.04 0.04 0.05
0.05 0.06 0.05 0.05 0.04 0.03 0.04 0.05 0.04 0.05 0.06 0.07 0.09 0.08 0.08 0.10 0.08 0.06 0.07 0.09 0.13 0.13 0.13 0.11 0.10 0.09 0.07 0.06 0.07 0.13 0.16 0.17 0.15 0.12 0.10 0.07 0.06 0.05 0.04 0.05 0.05 0.04 0.04
0.04 0.06 0.06 0.07 0.06 0.05 0.04 0.05 0.06 0.06 0.08 0.08 0.07 0.07 0.06 0.04 0.04 0.05 0.05 0.07 0.11 0.14 0.15 0.13 0.11 0.10 0.08 0.09 0.06 0.07 0.12 0.18 0.19 0.20 0.20 0.17 0.11 0.08 0.08 0.09 0.08 0.07 0.05
0.04 0.07 0.07 0.07 0.06 0.05 0.03 0.04 0.04 0.04 0.05 0.07 0.07 0.05 0.05 0.04 0.03 0.03 0.04 0.04 0.06 0.10 0.14 0.10 0.07 0.05 0.07 0.07 0.06 0.05 0.04 0.07 0.09 0.12 0.16 0.19 0.18 0.15 0.14 0.14 0.13 0.12 0.10
0.03 0.06 0.07 0.05 0.03 0.02 0.02 0.02 0.04 0.04 0.04 0.04 0.05 0.05 0.06 0.07 0.06 0.04 0.03 0.03 0.04 0.06 0.06 0.06 0.06 0.05 0.06 0.07 0.07 0.06 0.05 0.04 0.04 0.05 0.06 0.08 0.11 0.12 0.12 0.13 0.14 0.13 0.10
0.01 0.02 0.02 0.02 0.03 0.02 0.02 0.02 0.02 0.04 0.04 0.04 0.02 0.03 0.04 0.07 0.06 0.05 0.03 0.02 0.03 0.04 0.04 0.04 0.04 0.04 0.05 0.07 0.08 0.09 0.07 0.06 0.06 0.05 0.05 0.06 0.06 0.07 0.07 0.08 0.09 0.10 0.08
0.01 0.01 0.01 0.01 0.02 0.02 0.03 0.04 0.04 0.04 0.04 0.03 0.02 0.02 0.04 0.05 0.05 0.05 0.04 0.03 0.01 0.02 0.03 0.03 0.03 0.02 0.03 0.05 0.09 0.14 0.12 0.11 0.10 0.07 0.05 0.05 0.05 0.05 0.04 0.05 0.06 0.07 0.08
0.01 0.01 0.02 0.02 0.02 0.02 0.04 0.04 0.03 0.03 0.03 0.03 0.03 0.02 0.02 0.02 0.03 0.03 0.03 0.04 0.02 0.02 0.01 0.02 0.02 0.02 0.02 0.04 0.06 0.06 0.06 0.07 0.09 0.08 0.06 0.05 0.04 0.04 0.04 0.03 0.03 0.03 0.04
0.01 0.02 0.03 0.04 0.04 0.04 0.05 0.05 0.05 0.04 0.04 0.04 0.04 0.03 0.02 0.01 0.02 0.02 0.03 0.04 0.05 0.03 0.02 0.02 0.02 0.03 0.03 0.03 0.03 0.04 0.05 0.06 0.07 0.09 0.08 0.05 0.03 0.02 0.03 0.03 0.03 0.03 0.02
0.02 0.03 0.05 0.06 0.08 0.08 0.07 0.06 0.06 0.07 0.06 0.06 0.05 0.04 0.03 0.03 0.02 0.03 0.04 0.05 0.06 0.04 0.03 0.02 0.02 0.02 0.03 0.04 0.03 0.02 0.02 0.04 0.05 0.04 0.04 0.03 0.02 0.02 0.01 0.01 0.01 0.02 0.01
0.03 0.04 0.04 0.06 0.09 0.10 0.10 0.08 0.07 0.08 0.07 0.04 0.03 0.03 0.03 0.03 0.03 0.03 0.04 0.04 0.04 0.04 0.03 0.03 0.03 0.02 0.02 0.03 0.03 0.02 0.01 0.01 0.02 0.03 0.03 0.02 0.02 0.02 0.02 0.01 0.01 0.01 0.01
0.04 0.03 0.03 0.04 0.06 0.07 0.09 0.11 0.10 0.06 0.04 0.03 0.04 0.04 0.03 0.04 0.04 0.04 0.04 0.04 0.05 0.04 0.04 0.03 0.02 0.02 0.01 0.02 0.02 0.02 0.02 0.02 0.02 0.02 0.01 0.02 0.02 0.02 0.02 0.01 0.01 0.01 0.01
0.03 0.04 0.05 0.04 0.06 0.07 0.07 0.05 0.05 0.05 0.04 0.03 0.04 0.04 0.04 0.05 0.04 0.04 0.03 0.04 0.05 0.04 0.03 0.03 0.02 0.02 0.01 0.01 0.01 0.01 0.01 0.02 0.02 0.02 0.02 0.02 0.03 0.03 0.02 0.01 0.01 0.01 0.00
0.03 0.03 0.04 0.06 0.07 0.07 0.07 0.06 0.06 0.05 0.04 0.04 0.04 0.04 0.05 0.04 0.03 0.03 0.02 0.03 0.04 0.04 0.02 0.02 0.01 0.02 0.02 0.01 0.01 0.01 0.01 0.02 0.03 0.03 0.02 0.02 0.03 0.04 0.03 0.02 0.01 0.01 0.01
0.04 0.04 0.04 0.06 0.09 0.09 0.06 0.06 0.06 0.06 0.05 0.05 0.04 0.04 0.05 0.05 0.05 0.04 0.03 0.03 0.04 0.04 0.04 0.03 0.02 0.02 0.02 0.02 0.02 0.03 0.03 0.03 0.02 0.02 0.01 0.02 0.02 0.02 0.02 0.02 0.02 0.01 0.01
0.04 0.05 0.06 0.06 0.07 0.07 0.07 0.09 0.09 0.05 0.04 0.03 0.02 0.02 0.04 0.05 0.04 0.04 0.04 0.04 0.04 0.05 0.04 0.04 0.03 0.03 0.03 0.03 0.04 0.05 0.04 0.04 0.02 0.01 0.02 0.02 0.02 0.02 0.03 0.03 0.03 0.02 0.02
0.03 0.04 0.04 0.04 0.04 0.04 0.06 0.07 0.07 0.04 0.03 0.02 0.02 0.02 0.03 0.04 0.04 0.03 0.04 0.05 0.05 0.06 0.05 0.05 0.04 0.03 0.03 0.03 0.03 0.03 0.02 0.02 0.01 0.02 0.04 0.02 0.01 0.01 0.02 0.04 0.05 0.04 0.02
0.04 0.04 0.04 0.04 0.03 0.03 0.04 0.06 0.07 0.05 0.03 0.02 0.03 0.03 0.03 0.03 0.03 0.04 0.04 0.04 0.05 0.05 0.06 0.05 0.04 0.03 0.03 0.02 0.01 0.01 0.01 0.01 0.01 0.01 0.02 0.02 0.01 0.01 0.01 0.03 0.04 0.05 0.04
0.04 0.04 0.03 0.02 0.03 0.02 0.03 0.05 0.07 0.05 0.04 0.03 0.02 0.02 0.02 0.02 0.03 0.05 0.04 0.03 0.03 0.04 0.05 0.05 0.04 0.03 0.03 0.02 0.02 0.02 0.02 0.02 0.02 0.01 0.02 0.03 0.02 0.02 0.02 0.02 0.03 0.05 0.06
0.05 0.04 0.02 0.02 0.02 0.02 0.02 0.03 0.04 0.02 0.02 0.02 0.01 0.01 0.02 0.03 0.03 0.04 0.04 0.03 0.02 0.03 0.05 0.06 0.04 0.02 0.01 0.01 0.02 0.03 0.03 0.04 0.03 0.02 0.02 0.03 0.03 0.04 0.04 0.03 0.02 0.03 0.05
MSLP
1017.47 1017.71 1017.89 1018.04 1018.18 1018.33 1018.50 1018.66 1018.83 1018.97 1019.06 1019.12 1019.15 1019.15 1019.15 1019.16 1019.22 1019.31 1019.45 1019.61 1019.79 1019.98 1020.16 1020.34 1020.49 1020.63 1020.77 1020.90 1021.02 1021.15 1021.27 1021.41 1021.54 1021.69 1021.84 1022.01 1022.18 1022.36 1022.51 1022.65 1022.74 1022.80 1022.83
1017.36 1017.62 1017.84 1018.04 1018.23 1018.42 1018.63 1018.83 1019.03 1019.19 1019.33 1019.41 1019.46 1019.47 1019.46 1019.45 1019.45 1019.48 1019.54 1019.63 1019.76 1019.90 1020.06 1020.22 1020.39 1020.55 1020.70 1020.83 1020.95 1021.05 1021.13 1021.22 1021.30 1021.40 1021.53 1021.67 1021.84 1022.02 1022.19 1022.35 1022.47 1022.56 1022.61
1017.11 1017.40 1017.66 1017.91 1018.16 1018.40 1018.65 1018.90 1019.13 1019.34 1019.51 1019.63 1019.70 1019.72 1019.71 1019.67 1019.62 1019.58 1019.56 1019.57 1019.62 1019.71 1019.84 1019.99 1020.17 1020.35 1020.52 1020.67 1020.79 1020.88 1020.94 1020.98 1021.02 1021.08 1021.16 1021.28 1021.44 1021.61 1021.80 1021.97 1022.12 1022.24 1022.32
1016.72 1017.03 1017.34 1017.64 1017.94 1018.24 1018.54 1018.83 1019.11 1019.35 1019.55 1019.71 1019.81 1019.85 1019.84 1019.78 1019.70 1019.59 1019.50 1019.42 1019.39 1019.41 1019.49 1019.62 1019.80 1019.99 1020.19 1020.37 1020.51 1020.60 1020.66 1020.68 1020.69 1020.71 1020.77 1020.86 1020.99 1021.16 1021.35 1021.54 1021.71 1021.85 1021.96
1016.23 1016.55 1016.88 1017.23 1017.58 1017.94 1018.28 1018.62 1018.93 1019.21 1019.44 1019.63 1019.77 1019.84 1019.84 1019.78 1019.67 1019.52 1019.35 1019.20 1019.08 1019.02 1019.04 1019.13 1019.28 1019.48 1019.69 1019.89 1020.06 1020.17 1020.24 1020.27 1020.28 1020.28 1020.32 1020.40 1020.52 1020.67 1020.86 1021.05 1021.23 1021.38 1021.51
1015.68 1016.00 1016.35 1016.73 1017.12 1017.52 1017.91 1018.27 1018.61 1018.91 1019.18 1019.41 1019.58 1019.68 1019.72 1019.67 1019.56 1019.38 1019.16 1018.94 1018.74 1018.60 1018.53 1018.55 1018.66 1018.83 1019.04 1019.25 1019.43 1019.58 1019.68 1019.73 1019.75 1019.78 1019.81 1019.88 1019.99 1020.14 1020.31 1020.49 1020.67 1020.83 1020.96
1015.14 1015.44 1015.79 1016.19 1016.61 1017.04 1017.45 1017.84 1018.20 1018.53 1018.82 1019.08 1019.29 1019.44 1019.52 1019.51 1019.41 1019.23 1018.98 1018.70 1018.42 1018.19 1018.03 1017.97 1017.99 1018.10 1018.27 1018.47 1018.66 1018.83 1018.96 1019.05 1019.11 1019.16 1019.22 1019.29 1019.40 1019.54 1019.70 1019.87 1020.04 1020.19 1020.32
1014.66 1014.93 1015.27 1015.68 1016.11 1016.56 1016.98 1017.39 1017.75 1018.09 1018.41 1018.70 1018.95 1019.15 1019.28 1019.33 1019.27 1019.10 1018.84 1018.52 1018.18 1017.86 1017.59 1017.41 1017.34 1017.36 1017.46 1017.61 1017.79 1017.96 1018.11 1018.24 1018.34 1018.43 1018.52 1018.62 1018.73 1018.87 1019.02 1019.17 1019.33 1019.47 1019.60
1014.28 1014.51 1014.84 1015.23 1015.67 1016.12 1016.55 1016.95 1017.32 1017.66 1017.99 1018.30 1018.59 1018.84 1019.03 1019.14 1019.13 1019.00 1018.75 1018.41 1018.02 1017.62 1017.25 1016.95 1016.76 1016.66 1016.66 1016.74 1016.87 1017.03 1017.18 1017.34 1017.48 1017.60 1017.73 1017.86 1017.99 1018.13 1018.27 1018.41 1018.55 1018.69 1018.82
1013.99 1014.19 1014.50 1014.88 1015.31 1015.75 1016.17 1016.56 1016.91 1017.25 1017.58 1017.90 1018.22 1018.51 1018.76 1018.92 1018.97 1018.89 1018.67 1018.34 1017.92 1017.46 1017.01 1016.60 1016.28 1016.07 1015.95 1015.93 1015.99 1016.10 1016.24 1016.41 1016.57 1016.72 1016.88 1017.03 1017.19 1017.33 1017.48 1017.62 1017.75 1017.89 1018.03
1013.79 1013.96 1014.25 1014.61 1015.02 1015.44 1015.84 1016.20 1016.53 1016.85 1017.16 1017.48 1017.81 1018.13 1018.42 1018.64 1018.75 1018.73 1018.56 1018.25 1017.84 1017.35 1016.84 1016.34 1015.92 1015.59 1015.37 1015.25 1015.22 1015.27 1015.37 1015.51 1015.67 1015.85 1016.02 1016.20 1016.37 1016.53 1016.68 1016.83 1016.97 1017.12 1017.28
1013.64 1013.79 1014.06 1014.40 1014.78 1015.16 1015.53 1015.85 1016.15 1016.42 1016.71 1017.01 1017.33 1017.66 1017.97 1018.24 1018.41 1018.44 1018.34 1018.08 1017.69 1017.21 1016.68 1016.15 1015.66 1015.24 1014.92 1014.71 1014.59 1014.57 1014.61 1014.72 1014.86 1015.03 1015.22 1015.41 1015.59 1015.77 1015.94 1016.10 1016.27 1016.43 1016.61
1013.52 1013.66 1013.91 1014.22 1014.56 1014.90 1015.21 1015.49 1015.73 1015.96 1016.19 1016.46 1016.75 1017.08 1017.40 1017.69 1017.90 1018.00 1017.96 1017.77 1017.45 1017.01 1016.51 1015.97 1015.46 1015.00 1014.61 1014.33 1014.14 1014.04 1014.02 1014.08 1014.18 1014.33 1014.51 1014.70 1014.90 1015.09 1015.29 1015.47 1015.66 1015.85 1016.06
1013.41 1013.55 1013.78 1014.06 1014.36 1014.64 1014.89 1015.10 1015.28 1015.45 1015.63 1015.84 1016.10 1016.39 1016.71 1017.01 1017.25 1017.40 1017.42 1017.31 1017.07 1016.71 1016.26 1015.78 1015.28 1014.82 1014.41 1014.08 1013.83 1013.67 1013.59 1013.59 1013.66 1013.77 1013.93 1014.11 1014.32 1014.53 1014.74 1014.96 1015.18 1015.40 1015.63
1013.34 1013.48 1013.69 1013.93 1014.17 1014.40 1014.58 1014.72 1014.84 1014.93 1015.05 1015.21 1015.41 1015.67 1015.96 1016.25 1016.51 1016.69 1016.77 1016.73 1016.57 1016.30 1015.95 1015.53 1015.09 1014.66 1014.26 1013.92 1013.64 1013.44 1013.31 1013.26 1013.27 1013.35 1013.47 1013.65 1013.84 1014.07 1014.30 1014.54 1014.79 1015.04 1015.29
1013.33 1013.48 1013.66 1013.86 1014.05 1014.22 1014.33 1014.41 1014.45 1014.49 1014.54 1014.64 1014.79 1015.00 1015.25 1015.52 1015.77 1015.96 1016.08 1016.10 1016.02 1015.83 1015.57 1015.23 1014.87 1014.49 1014.13 1013.80 1013.52 1013.28 1013.12 1013.02 1012.99 1013.02 1013.11 1013.26 1013.45 1013.67 1013.92 1014.18 1014.45 1014.72 1014.99
1013.41 1013.57 1013.74 1013.90 1014.04 1014.14 1014.20 1014.22 1014.20 1014.18 1014.19 1014.23 1014.34 1014.49 1014.69 1014.92 1015.14 1015.33 1015.46 1015.51 1015.47 1015.35 1015.15 1014.90 1014.60 1014.29 1013.97 1013.67 1013.40 1013.16 1012.97 1012.83 1012.75 1012.74 1012.79 1012.91 1013.08 1013.29 1013.54 1013.81 1014.09 1014.38 1014.67
1013.61 1013.77 1013.92 1014.05 1014.16 1014.21 1014.22 1014.20 1014.14 1014.09 1014.05 1014.05 1014.11 1014.22 1014.37 1014.54 1014.72 1014.87 1014.97 1015.02 1014.99 1014.90 1014.75 1014.55 1014.31 1014.05 1013.78 1013.51 1013.25 1013.01 1012.80 1012.64 1012.52 1012.46 1012.47 1012.54 1012.67 1012.86 1013.09 1013.36 1013.65 1013.95 1014.25
1013.90 1014.06 1014.21 1014.33 1014.41 1014.44 1014.42 1014.37 1014.29 1014.21 1014.15 1014.12 1014.14 1014.20 1014.30 1014.41 1014.53 1014.62 1014.68 1014.68 1014.64 1014.54 1014.40 1014.22 1014.02 1013.79 1013.55 1013.31 1013.07 1012.83 1012.61 1012.41 1012.26 1012.15 1012.10 1012.12 1012.20 1012.35 1012.55 1012.80 1013.08 1013.39 1013.70
1014.24 1014.42 1014.57 1014.69 1014.77 1014.79 1014.77 1014.71 1014.62 1014.54 1014.46 1014.42 1014.40 1014.42 1014.47 1014.52 1014.56 1014.58 1014.57 1014.51 1014.41 1014.28 1014.12 1013.93 1013.73 1013.52 1013.31 1013.08 1012.85 1012.62 1012.39 1012.16 1011.97 1011.81 1011.70 1011.65 1011.66 1011.75 1011.90 1012.11 1012.38 1012.68 1013.00
1014.59 1014.79 1014.97 1015.10 1015.19 1015.23 1015.22 1015.16 1015.08 1014.99 1014.91 1014.85 1014.81 1014.79 1014.78 1014.78 1014.75 1014.69 1014.60 1014.47 1014.30 1014.11 1013.91 1013.70 1013.49 1013.28 1013.07 1012.86 1012.64 1012.41 1012.16 1011.92 1011.68 1011.46 1011.28 1011.15 1011.08 1011.09 1011.17 1011.33 1011.56 1011.84 1012.17
1014.92 1015.14 1015.34 1015.51 1015.63 1015.69 1015.70 1015.66 1015.59 1015.50 1015.41 1015.34 1015.27 1015.22 1015.16 1015.09 1015.00 1014.87 1014.70 1014.50 1014.27 1014.02 1013.77 1013.53 1013.30 1013.09 1012.88 1012.67 1012.46 1012.23 1011.98 1011.71 1011.43 1011.15 1010.90 1010.68 1010.52 1010.43 1010.43 1010.51 1010.69 1010.94 1011.26
1015.19 1015.45 1015.69 1015.89 1016.04 1016.14 1016.16 1016.14 1016.08 1015.98 1015.88 1015.78 1015.69 1015.60 1015.49 1015.38 1015.22 1015.03 1014.80 1014.54 1014.26 1013.96 1013.68 1013.41 1013.17 1012.95 1012.75 1012.55 1012.35 1012.12 1011.86 1011.58 1011.26 1010.92 1010.59 1010.28 1010.02 1009.83 1009.73 1009.73 1009.84 1010.04 1010.35
1015.42 1015.71 1015.99 1016.24 1016.43 1016.54 1016.59 1016.57 1016.49 1016.39 1016.26 1016.13 1016.00 1015.87 1015.72 1015.56 1015.36 1015.12 1014.85 1014.55 1014.23 1013.91 1013.60 1013.32 1013.07 1012.86 1012.67 1012.49 1012.30 1012.08 1011.83 1011.52 1011.17 1010.79 1010.39 1009.99 1009.64 1009.35 1009.15 1009.06 1009.09 1009.24 1009.50
1015.64 1015.97 1016.29 1016.57 1016.78 1016.91 1016.96 1016.93 1016.84 1016.70 1016.54 1016.37 1016.20 1016.02 1015.83 1015.62 1015.39 1015.13 1014.83 1014.51 1014.17 1013.84 1013.53 1013.25 1013.01 1012.81 1012.63 1012.47 1012.30 1012.09 1011.84 1011.53 1011.16 1010.74 1010.29 1009.83 1009.40 1009.02 1008.73 1008.55 1008.50 1008.58 1008.79
1015.90 1016.25 1016.60 1016.90 1017.12 1017.26 1017.29 1017.24 1017.12 1016.95 1016.74 1016.52 1016.30 1016.08 1015.85 1015.61 1015.35 1015.06 1014.75 1014.42 1014.09 1013.76 1013.45 1013.18 1012.96 1012.77 1012.61 1012.47 1012.31 1012.12 1011.88 1011.58 1011.20 1010.76 1010.28 1009.78 1009.28 1008.84 1008.48 1008.22 1008.10 1008.11 1008.26
Thickness
5773 5772 5772 5771 5770 5769 5768 5767 5766 5765 5764 5763 5761 5760 5759 5758 5756 5755 5755 5754 5752 5751 5750 5749 5747 5746 5744 5743 5741 5740 5739 5738 5737 5736 5735 5734 5733 5732 5731 5730 5729 5728 5727
5774 5772 5771 5770 5769 5769 5768 5767 5766 5764 5763 5762 5760 5759 5758 5757 5756 5755 5754 5753 5752 5750 5749 5748 5748 5746 5745 5743 5742 5741 5740 5738 5737 5736 5735 5734 5733 5731 5730 5729 5728 5728 5727
5774 5773 5771 5770 5769 5769 5768 5766 5765 5763 5762 5761 5759 5758 5758 5756 5755 5754 5753 5752 5750 5749 5749 5748 5747 5746 5745 5743 5742 5741 5739 5738 5736 5735 5734 5733 5732 5731 5729 5728 5727 5726 5725
5774 5773 5771 5770 5769 5768 5767 5765 5763 5761 5759 5758 5757 5757 5756 5755 5754 5753 5752 5750 5749 5748 5748 5747 5745 5745 5744 5743 5742 5740 5738 5737 5736 5734 5733 5732 5731 5729 5728 5727 5726 5725 5724
5774 5773 5771 5770 5769 5767 5765 5764 5762 5760 5757 5756 5756 5755 5755 5754 5753 5752 5750 5749 5748 5747 5746 5745 5744 5743 5743 5742 5741 5739 5738 5737 5735 5733 5732 5731 5729 5728 5727 5725 5725 5723 5722
5774 5773 5771 5770 5768 5766 5764 5762 5760 5759 5757 5756 5755 5753 5752 5752 5752 5751 5750 5749 5747 5746 5745 5744 5743 5742 5741 5741 5739 5738 5736 5736 5733 5732 5730 5729 5728 5726 5725 5723 5722 5721 5720
5774 5773 5771 5769 5767 5764 5762 5761 5759 5757 5755 5755 5750 5746 5747 5749 5748 5749 5748 5747 5746 5745 5744 5743 5742 5741 5740 5739 5738 5736 5735 5734 5732 5731 5729 5728 5726 5724 5723 5721 5720 5719 5718
5775 5774 5771 5768 5766 5764 5761 5760 5758 5754 5753 5753 5748 5740 5736 5737 5743 5746 5745 5744 5744 5743 5742 5742 5740 5739 5738 5737 5736 5735 5733 5733 5731 5730 5728 5726 5724 5722 5721 5719 5717 5716 5715
5775 5773 5771 5769 5766 5763 5760 5759 5758 5754 5750 5750 5750 5743 5733 5729 5733 5739 5742 5742 5741 5740 5741 5740 5739 5737 5735 5734 5733 5732 5731 5730 5729 5728 5726 5724 5722 5720 5719 5717 5715 5713 5713
5775 5773 5770 5768 5766 5763 5761 5759 5758 5756 5752 5747 5747 5747 5744 5739 5731 5729 5734 5737 5738 5737 5737 5737 5736 5735 5733 5732 5730 5729 5728 5727 5726 5725 5723 5721 5719 5717 5716 5714 5713 5711 5710
5774 5772 5770 5767 5765 5763 5761 5759 5757 5755 5752 5748 5745 5743 5741 5739 5736 5729 5725 5728 5731 5733 5734 5733 5732 5731 5730 5729 5727 5726 5724 5723 5722 5721 5719 5718 5716 5714 5713 5712 5710 5709 5707
5771 5771 5769 5767 5765 5763 5760 5758 5756 5754 5751 5749 5746 5743 5740 5736 5733 5729 5724 5723 5724 5727 5729 5729 5729 5728 5727 5725 5724 5723 5722 5720 5719 5717 5716 5715 5713 5711 5710 5709 5708 5706 5705
5769 5768 5768 5765 5764 5762 5760 5757 5754 5752 5750 5747 5745 5742 5740 5738 5736 5732 5726 5721 5720 5722 5724 5725 5725 5725 5723 5722 5720 5719 5718 5717 5715 5714 5712 5711 5710 5708 5707 5706 5705 5703 5702
5769 5769 5767 5764 5762 5760 5758 5755 5752 5750 5748 5746 5744 5741 5739 5737 5735 5732 5727 5721 5715 5714 5716 5718 5720 5720 5719 5718 5716 5715 5714 5713 5711 5710 5708 5707 5705 5704 5703 5702 5701 5699 5698
5770 5767 5765 5762 5760 5758 5755 5752 5749 5747 5745 5743 5741 5739 5737 5735 5733 5731 5727 5723 5715 5708 5707 5712 5713 5716 5714 5713 5712 5710 5709 5708 5707 5706 5704 5702 5701 5700 5699 5698 5696 5695 5693
5768 5765 5762 5759 5756 5754 5751 5748 5745 5743 5741 5739 5737 5735 5733 5731 5730 5728 5725 5721 5718 5711 5705 5708 5709 5711 5710 5709 5707 5706 5704 5703 5702 5701 5700 5698 5697 5696 5694 5693 5692 5690 5689
5766 5763 5760 5757 5753 5750 5747 5743 5741 5739 5737 5735 5734 5731 5729 5728 5725 5723 5721 5718 5714 5711 5704 5704 5705 5705 5704 5703 5702 5700 5699 5698 5697 5696 5695 5694 5693 5692 5690 5689 5687 5685 5684
5764 5761 5758 5754 5750 5747 5743 5739 5737 5734 5732 5730 5729 5727 5725 5724 5721 5719 5716 5713 5711 5709 5704 5699 5700 5699 5698 5698 5696 5695 5694 5693 5691 5691 5690 5690 5688 5687 5686 5684 5683 5681 5680
5760 5758 5754 5750 5747 5743 5740 5737 5734 5731 5729 5727 5726 5723 5721 5719 5716 5714 5712 5709 5707 5706 5702 5698 5695 5695 5693 5692 5690 5689 5688 5687 5687 5686 5686 5685 5684 5682 5681 5679 5678 5677 5675
5756 5753 5751 5747 5744 5740 5737 5734 5731 5728 5726 5724 5722 5720 5718 5716 5714 5711 5709 5705 5703 5699 5697 5693 5690 5689 5688 5687 5685 5682 5680 5681 5681 5681 5681 5680 5679 5678 5676 5675 5673 5672 5670
5753 5750 5747 5743 5740 5737 5734 5731 5728 5725 5722 5719 5718 5716 5715 5714 5712 5709 5706 5701 5698 5694 5690 5687 5684 5683 5681 5680 5678 5678 5675 5675 5675 5676 5674 5674 5673 5672 5670 5669 5668 5666 5665
5748 5745 5741 5738 5735 5734 5731 5728 5725 5721 5718 5715 5713 5711 5710 5709 5707 5705 5702 5700 5696 5691 5686 5683 5680 5678 5677 5676 5675 5673 5670 5668 5667 5670 5668 5667 5667 5666 5665 5664 5664 5662 5661
5743 5739 5735 5733 5730 5729 5726 5723 5721 5717 5714 5711 5709 5706 5706 5705 5702 5699 5697 5695 5692 5690 5688 5683 5678 5676 5674 5674 5671 5668 5666 5664 5664 5666 5663 5662 5662 5660 5661 5660 5659 5657 5656
5738 5734 5731 5729 5726 5724 5722 5719 5716 5712 5709 5707 5705 5703 5700 5698 5697 5694 5691 5688 5686 5684 5683 5680 5677 5675 5674 5672 5669 5666 5663 5661 5660 5660 5659 5655 5656 5655 5656 5655 5654 5653 5651
5734 5731 5728 5724 5721 5719 5717 5714 5711 5706 5703 5701 5700 5698 5696 5693 5692 5689 5684 5680 5678 5678 5678 5676 5674 5672 5671 5668 5665 5660 5656 5653 5651 5652 5653 5650 5650 5648 5649 5649 5648 5647 5646
5730 5726 5723 5720 5717 5714 5712 5709 5705 5701 5697 5694 5693 5692 5691 5688 5686 5682 5678 5674 5670 5670 5670 5669 5667 5666 5664 5662 5660 5656 5652 5648 5645 5645 5647 5644 5643 5641 5639 5642 5642 5640 5638